Weather in Maua

Brazil     23°40′03″S   46°27′48″W
temp.,
°C
wind,
m/s
gust,
m/s
humid.,
%
clouds,
%
prec.,
mm/h
press.,
hPa
HPBL,
m
10 april, sat
sat1000:00+19n24760 0.0 1019110
03:00+18n23800 0.0 101894
06:00+17n23810 0.0 101883
09:00+22nnw23580 0.0 1019384
12:00+27nw23350 0.0 10171641
15:00+27sse13370 0.0 10141740
18:00+21sse22750 0.0 1015175
21:00+21ene017113 0.0 101641
11 april, sun
sun1100:00+20nne11735 0.0 101626
03:00+19n24740 0.0 101588
06:00+18nnw34722 0.0 101698
09:00+23nnw35521 0.0 1017400
12:00+28wnw35342 0.0 10151731
15:00+29wsw34325 0.0 10121853
18:00+24w24520 0.0 1014229
21:00+23nnw24555 0.0 101592
12 april, mon
mon1200:00+21nnw35590 0.0 1014109
03:00+20nnw36630 0.0 1014134
06:00+19nnw37640 0.0 1015152
09:00+24w24480 0.0 1017423
12:00+26s545323 0.0 10171372
15:00+22sse568579 1.1 1017654
18:00+20sse3697100 1.0 1018516
21:00+19sse359898 1.6 1020330
13 april, tue
tue1300:00+19se3497100 0.6 1020407
03:00+18se2498100 1.0 1019243
06:00+18sse3498100 0.4 1020283
09:00+18sse349790 0.8 1022270
12:00+19sse348881 0.3 1022479
15:00+19sse4484100 0.4 1020523
18:00+17sse358754 0.1 1020358
21:00+17se349043 0.1 1022298
14 april, wed
wed1400:00+16se249178 0.1 1021240
03:00+16se239077 0.2 1019193
06:00+15se139398 0.0 1020136
09:00+18se237999 0.1 1021533
12:00+22sse326175 0.0 10201136
15:00+21se337050 0.0 1018652
18:00+18sse348453 0.0 1019386
21:00+18sse358967 0.0 1020344